2024/01/31 00:00:00, 0.0, 1.2
2024/01/31 00:10:00, 0.0, 0.9
2024/01/31 00:20:00, 0.0, 0.7
2024/01/31 00:30:00, 0.0, 0.7
2024/01/31 00:40:00, 0.0, 0.0
2024/01/31 00:50:00, 0.0, 0.5
2024/01/31 01:00:00, 0.0, 0.9
2024/01/31 01:10:00, 0.0, 0.4
2024/01/31 01:20:00, 0.0, 0.9
2024/01/31 01:30:00, 0.0, 1.2
2024/01/31 01:40:00, 0.0, 1.3
2024/01/31 01:50:00, 0.0, 1.8
2024/01/31 02:00:00, 0.0, 1.9
2024/01/31 02:10:00, 0.0, 1.8
2024/01/31 02:20:00, 0.0, 1.7
2024/01/31 02:30:00, 0.0, 1.7
2024/01/31 02:40:00, 0.0, 1.5
2024/01/31 02:50:00, 0.0, 1.7
2024/01/31 03:00:00, 0.0, 2.1
2024/01/31 03:10:00, 0.0, 2.2
2024/01/31 03:20:00, 0.0, 2.2
2024/01/31 03:30:00, 0.0, 2.0
2024/01/31 03:40:00, 0.0, 2.3
2024/01/31 03:50:00, 0.0, 2.4
2024/01/31 04:00:00, 0.0, 1.7
2024/01/31 04:10:00, 0.0, 2.2
2024/01/31 04:20:00, 0.0, 2.1
2024/01/31 04:30:00, 0.0, 2.4
2024/01/31 04:40:00, 0.0, 2.4
2024/01/31 04:50:00, 0.0, 2.5
2024/01/31 05:00:00, 0.0, 2.8
2024/01/31 05:10:00, 0.0, 2.4
2024/01/31 05:20:00, 0.0, 3.0
2024/01/31 05:30:00, 0.0, 2.8
2024/01/31 05:40:00, 0.0, 2.8
2024/01/31 05:50:00, 0.0, 2.5
2024/01/31 06:00:00, 0.0, 2.7
2024/01/31 06:10:00, 0.0, 2.8
2024/01/31 06:20:00, 0.0, 3.1
2024/01/31 06:30:00, 0.0, 3.6
2024/01/31 06:40:00, 0.0, 3.2
2024/01/31 06:50:00, 0.0, 3.3
2024/01/31 07:00:00, 0.0, 3.4
2024/01/31 07:10:00, 0.0, 3.4
2024/01/31 07:20:00, 0.0, 3.8
2024/01/31 07:30:00, 0.0, 3.9
2024/01/31 07:40:00, 0.0, 3.8
2024/01/31 07:50:00, 0.0, 3.2
2024/01/31 08:00:00, 0.0, 3.6
2024/01/31 08:10:00, 0.0, 4.0
2024/01/31 08:20:00, 0.0, 3.8
2024/01/31 08:30:00, 0.0, 4.1
2024/01/31 08:40:00, 0.0, 4.3
2024/01/31 08:50:00, 0.0, 4.6
2024/01/31 09:00:00, 0.0, 4.3
2024/01/31 09:10:00, 0.0, 4.2
2024/01/31 09:20:00, 0.0, 4.9
2024/01/31 09:30:00, 0.0, 4.6
2024/01/31 09:40:00, 0.0, 5.1
2024/01/31 09:50:00, 0.0, 5.1
2024/01/31 10:00:00, 0.0, 5.0
2024/01/31 10:10:00, 0.0, 5.0
2024/01/31 10:20:00, 0.0, 5.2
2024/01/31 10:30:00, 0.0, 4.7
2024/01/31 10:40:00, 0.0, 4.7
2024/01/31 10:50:00, 0.0, 6.0
2024/01/31 11:00:00, 0.0, 5.7
2024/01/31 11:10:00, 0.0, 5.5
2024/01/31 11:20:00,---, 5.8
2024/01/31 11:30:00,17.8, 6.0
2024/01/31 11:40:00, 0.0, 6.2
2024/01/31 11:50:00, 0.0, 6.0
2024/01/31 12:00:00, 0.0, 6.7
2024/01/31 12:10:00, 0.0, 6.7
2024/01/31 12:20:00, 0.0, 7.1
2024/01/31 12:30:00,24.8, 6.4
2024/01/31 12:40:00, 0.0, 6.1
2024/01/31 12:50:00, 0.0, 6.0
2024/01/31 13:00:00, 0.0, 6.0
2024/01/31 13:10:00, 0.0, 6.0
2024/01/31 13:20:00, 0.0, 7.2
2024/01/31 13:30:00, 0.0, 7.5
2024/01/31 13:40:00, 0.0, 7.0
2024/01/31 13:50:00, 0.0, 6.3
2024/01/31 14:00:00, 0.0, 6.9
2024/01/31 14:10:00, 0.0, 6.7
2024/01/31 14:20:00, 0.0, 6.5
2024/01/31 14:30:00, 0.0, 6.3
2024/01/31 14:40:00, 0.0, 7.2
2024/01/31 14:50:00, 0.0, 7.0
2024/01/31 15:00:00, 0.0, 6.7
2024/01/31 15:10:00, 0.0, 7.5
2024/01/31 15:20:00,19.9, 7.4
2024/01/31 15:30:00,32.4, 7.0
2024/01/31 15:40:00, 0.0, 6.7
2024/01/31 15:50:00, 0.0, 6.2
2024/01/31 16:00:00, 0.0, 6.7
2024/01/31 16:10:00, 0.0, 6.3
2024/01/31 16:20:00, 0.0, 7.1
2024/01/31 16:30:00, 0.0, 6.0
2024/01/31 16:40:00, 0.0, 5.7
2024/01/31 16:50:00, 0.0, 5.7
2024/01/31 17:00:00, 0.0, 5.5
2024/01/31 17:10:00, 0.0, 5.4
2024/01/31 17:20:00, 0.0, 5.8
2024/01/31 17:30:00, 0.0, 5.5
2024/01/31 17:40:00, 0.0, 5.6
2024/01/31 17:50:00, 0.0, 4.4
2024/01/31 18:00:00, 0.0, 4.8
2024/01/31 18:10:00, 0.0, 5.4
2024/01/31 18:20:00, 0.0, 5.2
2024/01/31 18:30:00, 0.0, 4.9
2024/01/31 18:40:00, 0.0, 4.5
2024/01/31 18:50:00, 0.0, 4.9
2024/01/31 19:00:00, 0.0, 4.7
2024/01/31 19:10:00, 0.0, 4.7
2024/01/31 19:20:00, 0.0, 4.8
2024/01/31 19:30:00, 0.0, 4.5
2024/01/31 19:40:00, 0.0, 4.5
2024/01/31 19:50:00, 0.0, 4.7
2024/01/31 20:00:00, 0.0, 4.9
2024/01/31 20:10:00, 0.0, 4.6
2024/01/31 20:20:00, 0.0, 4.5
2024/01/31 20:30:00, 0.0, 4.8
2024/01/31 20:40:00, 0.0, 4.6
2024/01/31 20:50:00, 0.0, 4.3
2024/01/31 21:00:00, 0.0, 5.0
2024/01/31 21:10:00, 0.0, 5.0
2024/01/31 21:20:00, 0.0, 4.7
2024/01/31 21:30:00, 0.0, 5.0
2024/01/31 21:40:00, 0.0, 5.0
2024/01/31 21:50:00, 0.0, 4.7
2024/01/31 22:00:00,---, 5.1
2024/01/31 22:10:00, 0.0, 4.6
2024/01/31 22:20:00, 0.0, 4.5
2024/01/31 22:30:00,---, 4.9
2024/01/31 22:40:00, 0.0, 5.1
2024/01/31 22:50:00, 0.0, 5.2
2024/01/31 23:00:00, 0.0, 4.7
2024/01/31 23:10:00, 0.0, 4.6
2024/01/31 23:20:00, 0.0, 4.8
2024/01/31 23:30:00, 0.0, 4.6
2024/01/31 23:40:00, 0.0, 4.8
2024/01/31 23:50:00, 0.0, 5.0
